Time,TemperatureF,DewpointF,PressureIn,WindDirection,WindDirectionDegrees,WindSpeedMPH,WindSpeedGustMPH,Humidity,HourlyPrecipIn,Conditions,Clouds,dailyrainin,SoftwareType,DateUTC
2013-01-21 00:00:00,13.6,7.4,30.76,NW,323,2.0,9.0,76,0.00,,,0.00,Wunderground v.1.15,2013-01-21 07:00:00,
2013-01-21 00:06:00,13.7,7.5,30.75,NNW,327,2.0,9.0,76,0.00,,,0.00,Wunderground v.1.15,2013-01-21 07:06:00,
2013-01-21 00:12:00,13.8,7.6,30.75,NNW,331,2.0,9.0,76,0.00,,,0.00,Wunderground v.1.15,2013-01-21 07:12:00,
2013-01-21 00:18:00,14.0,7.5,30.75,NW,314,3.0,9.0,75,0.00,,,0.00,Wunderground v.1.15,2013-01-21 07:18:00,
2013-01-21 00:24:00,14.3,7.5,30.75,NNW,335,4.0,9.0,74,0.00,,,0.00,Wunderground v.1.15,2013-01-21 07:24:00,
2013-01-21 00:30:00,14.5,7.4,30.75,NW,326,5.0,9.0,73,0.00,,,0.00,Wunderground v.1.15,2013-01-21 07:30:00,
2013-01-21 00:36:00,14.7,6.7,30.74,NNW,337,5.0,9.0,70,0.00,,,0.00,Wunderground v.1.15,2013-01-21 07:36:00,
2013-01-21 00:42:00,14.8,6.8,30.74,NW,311,6.0,9.0,70,0.00,,,0.00,Wunderground v.1.15,2013-01-21 07:42:00,
2013-01-21 00:48:00,14.8,6.5,30.74,NNW,334,7.0,10.0,69,0.00,,,0.00,Wunderground v.1.15,2013-01-21 07:48:00,
2013-01-21 00:54:00,14.9,6.6,30.74,NNW,337,7.0,9.0,69,0.00,,,0.00,Wunderground v.1.15,2013-01-21 07:54:00,
2013-01-21 01:00:00,14.9,6.6,30.74,NW,324,7.0,7.0,69,0.00,,,0.00,Wunderground v.1.15,2013-01-21 08:00:00,
2013-01-21 01:06:00,14.9,6.9,30.74,NNW,330,6.0,9.0,70,0.00,,,0.00,Wunderground v.1.15,2013-01-21 08:06:00,
2013-01-21 01:12:00,14.9,7.2,30.74,NNW,331,5.0,9.0,71,0.00,,,0.00,Wunderground v.1.15,2013-01-21 08:12:00,
2013-01-21 01:18:00,14.9,7.5,30.74,NW,310,5.0,9.0,72,0.00,,,0.00,Wunderground v.1.15,2013-01-21 08:18:00,
2013-01-21 01:24:00,14.8,7.4,30.74,NW,324,4.0,9.0,72,0.00,,,0.00,Wunderground v.1.15,2013-01-21 08:24:00,
2013-01-21 01:30:00,14.7,7.6,30.74,North,354,3.0,9.0,73,0.00,,,0.00,Wunderground v.1.15,2013-01-21 08:30:00,
2013-01-21 01:36:00,14.7,7.6,30.74,NNW,335,4.0,9.0,73,0.00,,,0.00,Wunderground v.1.15,2013-01-21 08:36:00,
2013-01-21 01:42:00,14.6,7.8,30.74,NNW,337,4.0,9.0,74,0.00,,,0.00,Wunderground v.1.15,2013-01-21 08:42:00,
2013-01-21 01:48:00,14.6,7.8,30.74,NW,318,4.0,9.0,74,0.00,,,0.00,Wunderground v.1.15,2013-01-21 08:48:00,
2013-01-21 01:54:00,14.5,8.3,30.73,North,354,3.0,9.0,76,0.00,,,0.00,Wunderground v.1.15,2013-01-21 08:54:00,
2013-01-21 02:00:00,14.3,8.4,30.73,NNW,338,3.0,3.0,77,0.00,,,0.00,Wunderground v.1.15,2013-01-21 09:00:00,
2013-01-21 02:06:00,14.1,8.2,30.72,NNW,340,3.0,9.0,77,0.00,,,0.00,Wunderground v.1.15,2013-01-21 09:06:00,
2013-01-21 02:12:00,13.9,8.0,30.72,North,354,2.0,3.0,77,0.00,,,0.00,Wunderground v.1.15,2013-01-21 09:12:00,
2013-01-21 02:18:00,13.8,8.2,30.72,North,10,3.0,9.0,78,0.00,,,0.00,Wunderground v.1.15,2013-01-21 09:18:00,
2013-01-21 02:24:00,13.7,8.4,30.72,North,349,3.0,9.0,79,0.00,,,0.00,Wunderground v.1.15,2013-01-21 09:24:00,
2013-01-21 02:30:00,13.6,8.6,30.71,North,354,3.0,3.0,80,0.00,,,0.00,Wunderground v.1.15,2013-01-21 09:30:00,
2013-01-21 02:36:00,13.4,8.4,30.72,NNW,343,3.0,9.0,80,0.00,,,0.00,Wunderground v.1.15,2013-01-21 09:36:00,
2013-01-21 02:42:00,13.2,8.2,30.71,NNW,343,3.0,9.0,80,0.00,,,0.00,Wunderground v.1.15,2013-01-21 09:42:00,
2013-01-21 02:48:00,13.1,8.4,30.71,North,359,2.0,9.0,81,0.00,,,0.00,Wunderground v.1.15,2013-01-21 09:48:00,
2013-01-21 02:54:00,12.9,8.2,30.71,North,11,3.0,9.0,81,0.00,,,0.00,Wunderground v.1.15,2013-01-21 09:54:00,
2013-01-21 03:00:00,12.8,8.3,30.70,NNE,12,3.0,3.0,82,0.00,,,0.00,Wunderground v.1.15,2013-01-21 10:00:00,
2013-01-21 03:06:00,12.7,8.5,30.70,NNE,16,2.0,9.0,83,0.00,,,0.00,Wunderground v.1.15,2013-01-21 10:06:00,
2013-01-21 03:12:00,12.6,8.4,30.70,NNE,19,2.0,9.0,83,0.00,,,0.00,Wunderground v.1.15,2013-01-21 10:12:00,
2013-01-21 03:18:00,12.5,8.3,30.70,NNE,20,1.0,9.0,83,0.00,,,0.00,Wunderground v.1.15,2013-01-21 10:18:00,
2013-01-21 03:24:00,12.5,8.3,30.70,NNE,19,1.0,9.0,83,0.00,,,0.00,Wunderground v.1.15,2013-01-21 10:24:00,
2013-01-21 03:30:00,12.4,8.2,30.69,NNE,19,0.0,9.0,83,0.00,,,0.00,Wunderground v.1.15,2013-01-21 10:30:00,
2013-01-21 03:36:00,12.4,8.2,30.70,NNE,19,0.0,9.0,83,0.00,,,0.00,Wunderground v.1.15,2013-01-21 10:36:00,
2013-01-21 03:42:00,12.4,8.2,30.69,NNE,19,0.0,9.0,83,0.00,,,0.00,Wunderground v.1.15,2013-01-21 10:42:00,
2013-01-21 03:48:00,12.3,8.1,30.69,NNE,19,1.0,1.0,83,0.00,,,0.00,Wunderground v.1.15,2013-01-21 10:48:00,
2013-01-21 03:54:00,12.3,8.1,30.69,NNE,19,1.0,9.0,83,0.00,,,0.00,Wunderground v.1.15,2013-01-21 10:54:00,
2013-01-21 04:00:00,12.2,7.8,30.69,NNE,20,1.0,9.0,82,0.00,,,0.00,Wunderground v.1.15,2013-01-21 11:00:00,
2013-01-21 04:06:00,12.2,8.0,30.70,NNE,19,1.0,9.0,83,0.00,,,0.00,Wunderground v.1.15,2013-01-21 11:06:00,
2013-01-21 04:12:00,12.3,8.1,30.68,NNE,19,2.0,9.0,83,0.00,,,0.00,Wunderground v.1.15,2013-01-21 11:12:00,
2013-01-21 04:18:00,12.3,8.1,30.70,NNE,20,1.0,9.0,83,0.00,,,0.00,Wunderground v.1.15,2013-01-21 11:18:00,
2013-01-21 04:24:00,12.4,8.2,30.70,NNE,19,1.0,9.0,83,0.00,,,0.00,Wunderground v.1.15,2013-01-21 11:24:00,
2013-01-21 04:30:00,12.4,8.2,30.69,NNE,19,0.0,9.0,83,0.00,,,0.00,Wunderground v.1.15,2013-01-21 11:30:00,
2013-01-21 04:36:00,12.5,8.0,30.69,NNE,19,1.0,9.0,82,0.00,,,0.00,Wunderground v.1.15,2013-01-21 11:36:00,
2013-01-21 04:42:00,12.5,8.0,30.69,NNE,19,0.0,9.0,82,0.00,,,0.00,Wunderground v.1.15,2013-01-21 11:42:00,
2013-01-21 04:48:00,12.6,8.1,30.69,NNE,19,1.0,9.0,82,0.00,,,0.00,Wunderground v.1.15,2013-01-21 11:48:00,
2013-01-21 04:54:00,12.6,8.1,30.69,NNE,19,1.0,9.0,82,0.00,,,0.00,Wunderground v.1.15,2013-01-21 11:54:00,
2013-01-21 05:00:00,12.7,8.2,30.69,NNE,19,1.0,9.0,82,0.00,,,0.00,Wunderground v.1.15,2013-01-21 12:00:00,
2013-01-21 05:06:00,12.7,8.2,30.69,NNE,19,1.0,9.0,82,0.00,,,0.00,Wunderground v.1.15,2013-01-21 12:06:00,
2013-01-21 05:12:00,12.7,8.2,30.68,NNE,19,0.0,9.0,82,0.00,,,0.00,Wunderground v.1.15,2013-01-21 12:12:00,
2013-01-21 05:18:00,12.7,8.2,30.68,NNE,20,1.0,9.0,82,0.00,,,0.00,Wunderground v.1.15,2013-01-21 12:18:00,
2013-01-21 05:24:00,12.7,8.2,30.68,NNE,21,2.0,9.0,82,0.00,,,0.00,Wunderground v.1.15,2013-01-21 12:24:00,
2013-01-21 05:30:00,12.7,8.2,30.68,NNE,21,1.0,9.0,82,0.00,,,0.00,Wunderground v.1.15,2013-01-21 12:30:00,
2013-01-21 05:36:00,12.6,8.1,30.67,NNE,21,1.0,9.0,82,0.00,,,0.00,Wunderground v.1.15,2013-01-21 12:36:00,
2013-01-21 05:42:00,12.6,8.1,30.68,NNE,14,2.0,9.0,82,0.00,,,0.00,Wunderground v.1.15,2013-01-21 12:42:00,
2013-01-21 05:48:00,12.6,8.1,30.68,NNE,14,2.0,9.0,82,0.00,,,0.00,Wunderground v.1.15,2013-01-21 12:48:00,
2013-01-21 05:54:00,12.6,8.1,30.68,North,354,1.0,9.0,82,0.00,,,0.00,Wunderground v.1.15,2013-01-21 12:54:00,
2013-01-21 06:00:00,12.6,8.1,30.68,North,354,1.0,1.0,82,0.00,,,0.00,Wunderground v.1.15,2013-01-21 13:00:00,
2013-01-21 06:06:00,12.6,8.1,30.68,North,354,0.0,9.0,82,0.00,,,0.00,Wunderground v.1.15,2013-01-21 13:06:00,
2013-01-21 06:12:00,12.6,8.1,30.67,North,354,0.0,9.0,82,0.00,,,0.00,Wunderground v.1.15,2013-01-21 13:12:00,
2013-01-21 06:18:00,12.5,8.3,30.67,North,354,1.0,9.0,83,0.00,,,0.00,Wunderground v.1.15,2013-01-21 13:18:00,
2013-01-21 06:24:00,12.5,8.0,30.67,North,354,0.0,9.0,82,0.00,,,0.00,Wunderground v.1.15,2013-01-21 13:24:00,
2013-01-21 06:30:00,12.3,8.1,30.67,North,354,0.0,9.0,83,0.00,,,0.00,Wunderground v.1.15,2013-01-21 13:30:00,
2013-01-21 06:36:00,12.2,8.0,30.67,North,354,0.0,9.0,83,0.00,,,0.00,Wunderground v.1.15,2013-01-21 13:36:00,
2013-01-21 06:42:00,12.1,7.9,30.66,North,354,1.0,9.0,83,0.00,,,0.00,Wunderground v.1.15,2013-01-21 13:42:00,
2013-01-21 06:48:00,12.0,8.1,30.66,North,354,1.0,9.0,84,0.00,,,0.00,Wunderground v.1.15,2013-01-21 13:48:00,
2013-01-21 06:54:00,11.8,7.9,30.66,North,354,0.0,9.0,84,0.00,,,0.00,Wunderground v.1.15,2013-01-21 13:54:00,
2013-01-21 07:00:00,11.7,7.8,30.66,North,354,0.0,9.0,84,0.00,,,0.00,Wunderground v.1.15,2013-01-21 14:00:00,
2013-01-21 07:06:00,11.6,7.7,30.66,North,354,0.0,9.0,84,0.00,,,0.00,Wunderground v.1.15,2013-01-21 14:06:00,
2013-01-21 07:12:00,11.5,7.6,30.66,North,354,0.0,9.0,84,0.00,,,0.00,Wunderground v.1.15,2013-01-21 14:12:00,
2013-01-21 07:18:00,11.4,7.8,30.66,North,359,0.0,9.0,85,0.00,,,0.00,Wunderground v.1.15,2013-01-21 14:18:00,
2013-01-21 07:24:00,11.4,7.8,30.67,North,359,1.0,9.0,85,0.00,,,0.00,Wunderground v.1.15,2013-01-21 14:24:00,
2013-01-21 07:30:00,11.5,7.9,30.66,North,4,1.0,9.0,85,0.00,,,0.00,Wunderground v.1.15,2013-01-21 14:30:00,
2013-01-21 07:36:00,11.4,7.8,30.67,North,4,1.0,9.0,85,0.00,,,0.00,Wunderground v.1.15,2013-01-21 14:36:00,
2013-01-21 07:42:00,11.3,7.7,30.68,North,4,1.0,9.0,85,0.00,,,0.00,Wunderground v.1.15,2013-01-21 14:42:00,
2013-01-21 07:48:00,11.1,7.5,30.69,North,4,2.0,9.0,85,0.00,,,0.00,Wunderground v.1.15,2013-01-21 14:48:00,
2013-01-21 07:54:00,11.0,7.4,30.70,North,10,2.0,9.0,85,0.00,,,0.00,Wunderground v.1.15,2013-01-21 14:54:00,
2013-01-21 08:00:00,11.0,7.4,30.70,North,10,2.0,9.0,85,0.00,,,0.00,Wunderground v.1.15,2013-01-21 15:00:00,
2013-01-21 08:06:00,11.1,7.5,30.69,North,10,1.0,9.0,85,0.00,,,0.00,Wunderground v.1.15,2013-01-21 15:06:00,
2013-01-21 08:12:00,11.2,7.6,30.69,NNE,17,1.0,9.0,85,0.00,,,0.00,Wunderground v.1.15,2013-01-21 15:12:00,
2013-01-21 08:18:00,11.2,7.6,30.69,NNE,17,1.0,9.0,85,0.00,,,0.00,Wunderground v.1.15,2013-01-21 15:18:00,
2013-01-21 08:24:00,11.2,7.3,30.69,NNE,17,1.0,9.0,84,0.00,,,0.00,Wunderground v.1.15,2013-01-21 15:24:00,
2013-01-21 08:30:00,11.2,7.3,30.70,NNE,17,1.0,1.0,84,0.00,,,0.00,Wunderground v.1.15,2013-01-21 15:30:00,
2013-01-21 08:36:00,11.2,7.3,30.69,NNE,17,1.0,9.0,84,0.00,,,0.00,Wunderground v.1.15,2013-01-21 15:36:00,
2013-01-21 08:42:00,11.3,7.4,30.69,NNE,17,1.0,9.0,84,0.00,,,0.00,Wunderground v.1.15,2013-01-21 15:42:00,
2013-01-21 08:48:00,11.4,7.5,30.70,NNE,17,1.0,9.0,84,0.00,,,0.00,Wunderground v.1.15,2013-01-21 15:48:00,
2013-01-21 08:54:00,11.6,7.7,30.70,NNE,18,0.0,9.0,84,0.00,,,0.00,Wunderground v.1.15,2013-01-21 15:54:00,
2013-01-21 09:00:00,11.8,7.9,30.70,NNE,17,0.0,9.0,84,0.00,,,0.00,Wunderground v.1.15,2013-01-21 16:00:00,
2013-01-21 09:06:00,12.0,7.8,30.70,NNE,17,0.0,9.0,83,0.00,,,0.00,Wunderground v.1.15,2013-01-21 16:06:00,
2013-01-21 09:12:00,12.2,8.0,30.70,NNE,17,0.0,9.0,83,0.00,,,0.00,Wunderground v.1.15,2013-01-21 16:12:00,
2013-01-21 09:18:00,12.4,8.0,30.70,NNE,17,0.0,9.0,82,0.00,,,0.00,Wunderground v.1.15,2013-01-21 16:18:00,
2013-01-21 09:24:00,12.7,8.2,30.70,NNE,17,0.0,9.0,82,0.00,,,0.00,Wunderground v.1.15,2013-01-21 16:24:00,
2013-01-21 09:30:00,12.7,8.2,30.70,NNE,18,0.0,9.0,82,0.00,,,0.00,Wunderground v.1.15,2013-01-21 16:30:00,
2013-01-21 09:36:00,12.7,8.0,30.70,NNE,17,0.0,9.0,81,0.00,,,0.00,Wunderground v.1.15,2013-01-21 16:36:00,
2013-01-21 09:42:00,13.0,8.5,30.70,NNE,18,0.0,9.0,82,0.00,,,0.00,Wunderground v.1.15,2013-01-21 16:42:00,
2013-01-21 09:48:00,13.5,8.8,30.70,NNE,18,0.0,9.0,81,0.00,,,0.00,Wunderground v.1.15,2013-01-21 16:48:00,
2013-01-21 09:54:00,13.8,8.8,30.70,NNE,17,0.0,9.0,80,0.00,,,0.00,Wunderground v.1.15,2013-01-21 16:54:00,
2013-01-21 10:00:00,13.9,8.6,30.70,NNE,17,0.0,9.0,79,0.00,,,0.00,Wunderground v.1.15,2013-01-21 17:00:00,
2013-01-21 10:06:00,14.0,9.0,30.71,NNE,17,0.0,9.0,80,0.00,,,0.00,Wunderground v.1.15,2013-01-21 17:06:00,
2013-01-21 10:12:00,14.1,9.1,30.71,NNE,17,0.0,9.0,80,0.00,,,0.00,Wunderground v.1.15,2013-01-21 17:12:00,
2013-01-21 10:18:00,14.4,9.1,30.71,NNE,17,1.0,9.0,79,0.00,,,0.00,Wunderground v.1.15,2013-01-21 17:18:00,
2013-01-21 10:24:00,14.4,9.1,30.70,North,4,1.0,9.0,79,0.00,,,0.00,Wunderground v.1.15,2013-01-21 17:24:00,
2013-01-21 10:30:00,14.4,9.1,30.70,North,349,1.0,1.0,79,0.00,,,0.00,Wunderground v.1.15,2013-01-21 17:30:00,
2013-01-21 10:36:00,14.6,9.6,30.70,North,354,1.0,9.0,80,0.00,,,0.00,Wunderground v.1.15,2013-01-21 17:36:00,
2013-01-21 10:42:00,14.7,9.4,30.69,North,4,1.0,9.0,79,0.00,,,0.00,Wunderground v.1.15,2013-01-21 17:42:00,
2013-01-21 10:48:00,15.0,9.4,30.70,North,354,1.0,9.0,78,0.00,,,0.00,Wunderground v.1.15,2013-01-21 17:48:00,
2013-01-21 10:54:00,15.2,9.9,30.69,NNW,340,0.0,9.0,79,0.00,,,0.00,Wunderground v.1.15,2013-01-21 17:54:00,
2013-01-21 11:00:00,15.2,9.9,30.69,NNW,339,1.0,9.0,79,0.00,,,0.00,Wunderground v.1.15,2013-01-21 18:00:00,
2013-01-21 11:06:00,15.3,10.0,30.69,NW,326,2.0,9.0,79,0.00,,,0.00,Wunderground v.1.15,2013-01-21 18:06:00,
2013-01-21 11:12:00,15.3,10.0,30.68,NW,326,2.0,9.0,79,0.00,,,0.00,Wunderground v.1.15,2013-01-21 18:12:00,
2013-01-21 11:18:00,15.6,10.5,30.68,NNW,339,2.0,9.0,80,0.00,,,0.00,Wunderground v.1.15,2013-01-21 18:18:00,
2013-01-21 11:24:00,15.7,10.6,30.68,NNW,341,2.0,9.0,80,0.00,,,0.00,Wunderground v.1.15,2013-01-21 18:24:00,
2013-01-21 11:30:00,15.6,10.2,30.67,North,354,2.0,2.0,79,0.00,,,0.00,Wunderground v.1.15,2013-01-21 18:30:00,
2013-01-21 11:36:00,15.8,10.2,30.66,North,354,2.0,9.0,78,0.00,,,0.00,Wunderground v.1.15,2013-01-21 18:36:00,
2013-01-21 11:42:00,16.0,10.3,30.66,North,349,1.0,9.0,78,0.00,,,0.00,Wunderground v.1.15,2013-01-21 18:42:00,
2013-01-21 11:48:00,16.3,10.6,30.66,North,354,1.0,9.0,78,0.00,,,0.00,Wunderground v.1.15,2013-01-21 18:48:00,
2013-01-21 11:54:00,16.5,10.8,30.65,North,354,1.0,9.0,78,0.00,,,0.00,Wunderground v.1.15,2013-01-21 18:54:00,
2013-01-21 12:00:00,16.7,10.7,30.65,North,354,1.0,1.0,77,0.00,,,0.00,Wunderground v.1.15,2013-01-21 19:00:00,
2013-01-21 12:08:00,16.7,10.7,30.64,NNE,14,1.0,9.0,77,0.00,,,0.00,Wunderground v.1.15,2013-01-21 19:08:00,
2013-01-21 12:14:00,16.4,10.2,30.64,NNE,15,1.0,9.0,76,0.00,,,0.00,Wunderground v.1.15,2013-01-21 19:14:00,
2013-01-21 12:20:00,16.4,10.7,30.64,NNE,16,1.0,9.0,78,0.00,,,0.00,Wunderground v.1.15,2013-01-21 19:20:00,
2013-01-21 12:26:00,16.6,10.9,30.64,NNE,15,1.0,9.0,78,0.00,,,0.00,Wunderground v.1.15,2013-01-21 19:26:00,
2013-01-21 12:32:00,16.6,10.9,30.63,NNE,16,1.0,9.0,78,0.00,,,0.00,Wunderground v.1.15,2013-01-21 19:32:00,
2013-01-21 12:38:00,16.6,10.6,30.63,NNE,16,1.0,9.0,77,0.00,,,0.00,Wunderground v.1.15,2013-01-21 19:38:00,
2013-01-21 12:44:00,16.7,10.7,30.63,NNE,16,1.0,9.0,77,0.00,,,0.00,Wunderground v.1.15,2013-01-21 19:44:00,
2013-01-21 12:50:00,16.6,10.9,30.62,NNE,17,1.0,9.0,78,0.00,,,0.00,Wunderground v.1.15,2013-01-21 19:50:00,
2013-01-21 12:56:00,16.6,11.2,30.62,NNE,16,1.0,9.0,79,0.00,,,0.00,Wunderground v.1.15,2013-01-21 19:56:00,
2013-01-21 13:02:00,16.9,11.5,30.62,NNE,19,1.0,2.0,79,0.00,,,0.00,Wunderground v.1.15,2013-01-21 20:02:00,
2013-01-21 13:08:00,16.7,11.6,30.62,NNE,23,1.0,9.0,80,0.00,,,0.00,Wunderground v.1.15,2013-01-21 20:08:00,
2013-01-21 13:14:00,16.8,12.0,30.61,NE,41,2.0,9.0,81,0.00,,,0.00,Wunderground v.1.15,2013-01-21 20:14:00,
2013-01-21 13:20:00,16.7,11.9,30.60,NE,41,2.0,2.0,81,0.00,,,0.00,Wunderground v.1.15,2013-01-21 20:20:00,
2013-01-21 13:26:00,17.1,12.8,30.61,ENE,60,2.0,9.0,83,0.00,,,0.00,Wunderground v.1.15,2013-01-21 20:26:00,
2013-01-21 13:32:00,17.2,12.4,30.61,NE,51,2.0,9.0,81,0.00,,,0.00,Wunderground v.1.15,2013-01-21 20:32:00,
2013-01-21 13:38:00,17.2,12.4,30.61,East,97,2.0,9.0,81,0.00,,,0.00,Wunderground v.1.15,2013-01-21 20:38:00,
2013-01-21 13:44:00,17.3,12.7,30.61,ESE,113,2.0,9.0,82,0.00,,,0.00,Wunderground v.1.15,2013-01-21 20:44:00,
2013-01-21 13:50:00,17.9,12.8,30.60,South,185,2.0,9.0,80,0.00,,,0.00,Wunderground v.1.15,2013-01-21 20:50:00,
2013-01-21 13:56:00,18.5,13.1,30.60,SSE,166,3.0,9.0,79,0.00,,,0.00,Wunderground v.1.15,2013-01-21 20:56:00,
2013-01-21 14:02:00,18.6,13.2,30.60,SSE,168,3.0,4.0,79,0.00,,,0.00,Wunderground v.1.15,2013-01-21 21:02:00,
2013-01-21 14:08:00,18.6,12.9,30.60,SSE,154,3.0,9.0,78,0.00,,,0.00,Wunderground v.1.15,2013-01-21 21:08:00,
2013-01-21 14:14:00,18.9,13.2,30.60,South,173,4.0,9.0,78,0.00,,,0.00,Wunderground v.1.15,2013-01-21 21:14:00,
2013-01-21 14:20:00,19.2,13.2,30.61,South,173,3.0,9.0,77,0.00,,,0.00,Wunderground v.1.15,2013-01-21 21:20:00,
2013-01-21 14:26:00,19.2,12.6,30.61,SE,143,3.0,9.0,75,0.00,,,0.00,Wunderground v.1.15,2013-01-21 21:26:00,
2013-01-21 14:32:00,19.1,12.5,30.61,ESE,123,3.0,9.0,75,0.00,,,0.00,Wunderground v.1.15,2013-01-21 21:32:00,
2013-01-21 14:38:00,19.0,12.4,30.61,ESE,118,3.0,9.0,75,0.00,,,0.00,Wunderground v.1.15,2013-01-21 21:38:00,
2013-01-21 14:44:00,19.0,12.7,30.61,SSE,156,3.0,9.0,76,0.00,,,0.00,Wunderground v.1.15,2013-01-21 21:44:00,
2013-01-21 14:50:00,19.0,12.7,30.60,SSE,166,2.0,2.0,76,0.00,,,0.00,Wunderground v.1.15,2013-01-21 21:50:00,
2013-01-21 14:56:00,19.0,12.4,30.60,ESE,112,3.0,9.0,75,0.00,,,0.00,Wunderground v.1.15,2013-01-21 21:56:00,
2013-01-21 15:02:00,19.0,12.4,30.61,ESE,116,3.0,9.0,75,0.00,,,0.00,Wunderground v.1.15,2013-01-21 22:02:00,
2013-01-21 15:08:00,18.9,12.6,30.61,SE,131,2.0,9.0,76,0.00,,,0.00,Wunderground v.1.15,2013-01-21 22:08:00,
2013-01-21 15:14:00,18.9,12.6,30.61,SE,129,2.0,9.0,76,0.00,,,0.00,Wunderground v.1.15,2013-01-21 22:14:00,
2013-01-21 15:20:00,18.9,12.9,30.61,East,93,2.0,9.0,77,0.00,,,0.00,Wunderground v.1.15,2013-01-21 22:20:00,
2013-01-21 15:26:00,17.5,12.4,30.61,ENE,70,5.0,9.0,80,0.00,,,0.00,Wunderground v.1.15,2013-01-21 22:26:00,
2013-01-21 15:32:00,16.9,12.6,30.60,ENE,73,6.0,9.0,83,0.00,,,0.00,Wunderground v.1.15,2013-01-21 22:32:00,
2013-01-21 15:38:00,16.4,12.4,30.60,East,97,6.0,9.0,84,0.00,,,0.00,Wunderground v.1.15,2013-01-21 22:38:00,
2013-01-21 15:44:00,16.2,12.2,30.60,ENE,70,5.0,9.0,84,0.00,,,0.00,Wunderground v.1.15,2013-01-21 22:44:00,
2013-01-21 15:50:00,15.8,11.8,30.59,East,89,5.0,9.0,84,0.00,,,0.00,Wunderground v.1.15,2013-01-21 22:50:00,
2013-01-21 15:56:00,15.5,11.5,30.59,East,88,5.0,9.0,84,0.00,,,0.00,Wunderground v.1.15,2013-01-21 22:56:00,
2013-01-21 16:02:00,15.4,11.7,30.59,East,100,4.0,9.0,85,0.00,,,0.00,Wunderground v.1.15,2013-01-21 23:02:00,
2013-01-21 16:08:00,15.2,11.5,30.59,East,96,5.0,9.0,85,0.00,,,0.00,Wunderground v.1.15,2013-01-21 23:08:00,
2013-01-21 16:14:00,14.9,11.2,30.59,East,79,5.0,9.0,85,0.00,,,0.00,Wunderground v.1.15,2013-01-21 23:14:00,
2013-01-21 16:20:00,14.6,10.9,30.59,ENE,73,5.0,5.0,85,0.00,,,0.00,Wunderground v.1.15,2013-01-21 23:20:00,
2013-01-21 16:26:00,14.1,10.4,30.58,East,100,4.0,9.0,85,0.00,,,0.00,Wunderground v.1.15,2013-01-21 23:26:00,
2013-01-21 16:32:00,13.8,10.1,30.58,East,87,4.0,9.0,85,0.00,,,0.00,Wunderground v.1.15,2013-01-21 23:32:00,
2013-01-21 16:38:00,13.6,9.9,30.58,ENE,75,3.0,9.0,85,0.00,,,0.00,Wunderground v.1.15,2013-01-21 23:38:00,
2013-01-21 16:44:00,13.5,10.1,30.58,East,94,4.0,9.0,86,0.00,,,0.00,Wunderground v.1.15,2013-01-21 23:44:00,
2013-01-21 16:50:00,13.4,10.0,30.57,East,93,4.0,4.0,86,0.00,,,0.00,Wunderground v.1.15,2013-01-21 23:50:00,
2013-01-21 16:56:00,13.4,10.0,30.58,East,95,5.0,9.0,86,0.00,,,0.00,Wunderground v.1.15,2013-01-21 23:56:00,
2013-01-21 17:02:00,13.2,9.8,30.57,East,83,5.0,9.0,86,0.00,,,0.00,Wunderground v.1.15,2013-01-22 00:02:00,
2013-01-21 17:08:00,12.8,9.4,30.57,East,80,6.0,9.0,86,0.00,,,0.00,Wunderground v.1.15,2013-01-22 00:08:00,
2013-01-21 17:14:00,12.2,8.8,30.57,East,79,5.0,9.0,86,0.00,,,0.00,Wunderground v.1.15,2013-01-22 00:14:00,
2013-01-21 17:20:00,11.6,8.2,30.57,East,83,4.0,4.0,86,0.00,,,0.00,Wunderground v.1.15,2013-01-22 00:20:00,
2013-01-21 17:26:00,11.1,7.7,30.57,East,85,3.0,9.0,86,0.00,,,0.00,Wunderground v.1.15,2013-01-22 00:26:00,
2013-01-21 17:32:00,10.9,7.5,30.57,East,92,3.0,9.0,86,0.00,,,0.00,Wunderground v.1.15,2013-01-22 00:32:00,
2013-01-21 17:38:00,10.8,7.7,30.58,East,88,3.0,9.0,87,0.00,,,0.00,Wunderground v.1.15,2013-01-22 00:38:00,
2013-01-21 17:44:00,10.8,7.7,30.58,East,83,3.0,9.0,87,0.00,,,0.00,Wunderground v.1.15,2013-01-22 00:44:00,
2013-01-21 17:50:00,10.8,7.7,30.59,East,79,2.0,9.0,87,0.00,,,0.00,Wunderground v.1.15,2013-01-22 00:50:00,
2013-01-21 17:56:00,11.1,8.0,30.59,East,89,3.0,9.0,87,0.00,,,0.00,Wunderground v.1.15,2013-01-22 00:56:00,
2013-01-21 18:02:00,11.2,8.3,30.59,East,86,5.0,8.0,88,0.00,,,0.00,Wunderground v.1.15,2013-01-22 01:02:00,
2013-01-21 18:08:00,11.2,8.1,30.59,ESE,106,6.0,9.0,87,0.00,,,0.00,Wunderground v.1.15,2013-01-22 01:08:00,
2013-01-21 18:14:00,11.2,8.1,30.59,East,87,6.0,9.0,87,0.00,,,0.00,Wunderground v.1.15,2013-01-22 01:14:00,
2013-01-21 18:20:00,11.2,8.3,30.60,East,87,6.0,9.0,88,0.00,,,0.00,Wunderground v.1.15,2013-01-22 01:20:00,
2013-01-21 18:26:00,11.2,8.3,30.59,ENE,77,6.0,9.0,88,0.00,,,0.00,Wunderground v.1.15,2013-01-22 01:26:00,
2013-01-21 18:32:00,11.3,8.4,30.58,ENE,73,5.0,9.0,88,0.00,,,0.00,Wunderground v.1.15,2013-01-22 01:32:00,
2013-01-21 18:38:00,11.1,8.0,30.58,East,89,5.0,9.0,87,0.00,,,0.00,Wunderground v.1.15,2013-01-22 01:38:00,
2013-01-21 18:44:00,11.0,7.9,30.59,East,100,6.0,9.0,87,0.00,,,0.00,Wunderground v.1.15,2013-01-22 01:44:00,
2013-01-21 18:50:00,10.9,7.8,30.60,ENE,73,7.0,7.0,87,0.00,,,0.00,Wunderground v.1.15,2013-01-22 01:50:00,
2013-01-21 18:56:00,10.9,7.8,30.59,ENE,77,6.0,9.0,87,0.00,,,0.00,Wunderground v.1.15,2013-01-22 01:56:00,
2013-01-21 19:02:00,10.8,7.7,30.60,East,95,5.0,9.0,87,0.00,,,0.00,Wunderground v.1.15,2013-01-22 02:02:00,
2013-01-21 19:08:00,10.8,7.7,30.60,ESE,106,4.0,9.0,87,0.00,,,0.00,Wunderground v.1.15,2013-01-22 02:08:00,
2013-01-21 19:14:00,10.8,7.7,30.58,ESE,110,5.0,9.0,87,0.00,,,0.00,Wunderground v.1.15,2013-01-22 02:14:00,
2013-01-21 19:20:00,11.0,8.1,30.57,SE,131,6.0,9.0,88,0.00,,,0.00,Wunderground v.1.15,2013-01-22 02:20:00,
2013-01-21 19:26:00,11.4,8.3,30.56,SE,126,7.0,9.0,87,0.00,,,0.00,Wunderground v.1.15,2013-01-22 02:26:00,
2013-01-21 19:32:00,11.6,8.5,30.57,SE,137,8.0,9.0,87,0.00,,,0.00,Wunderground v.1.15,2013-01-22 02:32:00,
2013-01-21 19:38:00,11.8,8.7,30.58,SE,142,7.0,9.0,87,0.00,,,0.00,Wunderground v.1.15,2013-01-22 02:38:00,
2013-01-21 19:44:00,12.0,8.9,30.57,SE,133,7.0,9.0,87,0.00,,,0.00,Wunderground v.1.15,2013-01-22 02:44:00,
2013-01-21 19:50:00,12.1,9.0,30.56,SE,137,7.0,7.0,87,0.00,,,0.00,Wunderground v.1.15,2013-01-22 02:50:00,
2013-01-21 19:56:00,12.0,8.6,30.55,SSE,159,8.0,10.0,86,0.00,,,0.00,Wunderground v.1.15,2013-01-22 02:56:00,
2013-01-21 20:02:00,11.9,8.8,30.55,SSE,157,8.0,9.0,87,0.00,,,0.00,Wunderground v.1.15,2013-01-22 03:02:00,
2013-01-21 20:08:00,11.8,8.4,30.55,SE,142,8.0,10.0,86,0.00,,,0.00,Wunderground v.1.15,2013-01-22 03:08:00,
2013-01-21 20:14:00,11.6,8.2,30.56,SE,137,8.0,9.0,86,0.00,,,0.00,Wunderground v.1.15,2013-01-22 03:14:00,
2013-01-21 20:20:00,11.6,8.5,30.56,SSE,153,7.0,7.0,87,0.00,,,0.00,Wunderground v.1.15,2013-01-22 03:20:00,
2013-01-21 20:26:00,11.6,8.2,30.56,SE,129,6.0,9.0,86,0.00,,,0.00,Wunderground v.1.15,2013-01-22 03:26:00,
2013-01-21 20:32:00,11.4,8.0,30.56,SE,127,5.0,9.0,86,0.00,,,0.00,Wunderground v.1.15,2013-01-22 03:32:00,
2013-01-21 20:38:00,11.2,8.1,30.56,ESE,118,5.0,9.0,87,0.00,,,0.00,Wunderground v.1.15,2013-01-22 03:38:00,
2013-01-21 20:44:00,11.3,8.2,30.57,SE,129,5.0,9.0,87,0.00,,,0.00,Wunderground v.1.15,2013-01-22 03:44:00,
2013-01-21 20:50:00,11.4,8.3,30.56,SE,131,5.0,9.0,87,0.00,,,0.00,Wunderground v.1.15,2013-01-22 03:50:00,
2013-01-21 20:56:00,11.5,8.4,30.57,SE,130,7.0,10.0,87,0.00,,,0.00,Wunderground v.1.15,2013-01-22 03:56:00,
2013-01-21 21:02:00,11.5,8.4,30.58,SE,125,7.0,9.0,87,0.00,,,0.00,Wunderground v.1.15,2013-01-22 04:02:00,
2013-01-21 21:08:00,11.4,8.3,30.57,SE,127,7.0,10.0,87,0.00,,,0.00,Wunderground v.1.15,2013-01-22 04:08:00,
2013-01-21 21:14:00,11.4,8.3,30.57,SE,133,7.0,9.0,87,0.00,,,0.00,Wunderground v.1.15,2013-01-22 04:14:00,
2013-01-21 21:20:00,11.4,8.3,30.58,SE,136,7.0,7.0,87,0.00,,,0.00,Wunderground v.1.15,2013-01-22 04:20:00,
2013-01-21 21:26:00,11.4,8.3,30.58,SE,133,6.0,9.0,87,0.00,,,0.00,Wunderground v.1.15,2013-01-22 04:26:00,
2013-01-21 21:32:00,11.3,8.2,30.57,SE,134,6.0,9.0,87,0.00,,,0.00,Wunderground v.1.15,2013-01-22 04:32:00,
2013-01-21 21:38:00,11.3,8.2,30.57,SE,144,7.0,9.0,87,0.00,,,0.00,Wunderground v.1.15,2013-01-22 04:38:00,
2013-01-21 21:44:00,11.3,8.2,30.57,SE,136,6.0,9.0,87,0.00,,,0.00,Wunderground v.1.15,2013-01-22 04:44:00,
2013-01-21 21:50:00,11.3,8.2,30.57,SE,137,5.0,9.0,87,0.00,,,0.00,Wunderground v.1.15,2013-01-22 04:50:00,
2013-01-21 21:56:00,11.3,8.2,30.56,SE,146,5.0,9.0,87,0.00,,,0.00,Wunderground v.1.15,2013-01-22 04:56:00,
2013-01-21 22:02:00,11.3,8.2,30.57,South,170,4.0,9.0,87,0.00,,,0.00,Wunderground v.1.15,2013-01-22 05:02:00,
2013-01-21 22:06:00,11.2,8.1,30.57,SSE,168,3.0,9.0,87,0.00,,,0.00,Wunderground v.1.15,2013-01-22 05:06:00,
2013-01-21 22:10:00,11.1,8.0,30.56,SSE,158,3.0,9.0,87,0.00,,,0.00,Wunderground v.1.15,2013-01-22 05:10:00,
2013-01-21 22:12:00,11.1,8.0,30.56,SE,134,4.0,9.0,87,0.00,,,0.00,Wunderground v.1.15,2013-01-22 05:12:00,
2013-01-21 22:18:00,10.9,7.5,30.55,SSE,152,5.0,9.0,86,0.00,,,0.00,Wunderground v.1.15,2013-01-22 05:18:00,
2013-01-21 22:24:00,10.5,7.1,30.55,SSE,153,4.0,9.0,86,0.00,,,0.00,Wunderground v.1.15,2013-01-22 05:24:00,
2013-01-21 22:30:00,10.1,6.7,30.56,SE,142,4.0,9.0,86,0.00,,,0.00,Wunderground v.1.15,2013-01-22 05:30:00,
2013-01-21 22:36:00,9.8,6.5,30.56,SE,137,4.0,9.0,86,0.00,,,0.00,Wunderground v.1.15,2013-01-22 05:36:00,
2013-01-21 22:42:00,9.5,6.2,30.55,SE,142,4.0,9.0,86,0.00,,,0.00,Wunderground v.1.15,2013-01-22 05:42:00,
2013-01-21 22:48:00,9.2,5.9,30.56,SSE,154,5.0,9.0,86,0.00,,,0.00,Wunderground v.1.15,2013-01-22 05:48:00,
2013-01-21 22:54:00,9.1,6.0,30.56,SE,137,5.0,9.0,87,0.00,,,0.00,Wunderground v.1.15,2013-01-22 05:54:00,
2013-01-21 23:00:00,9.0,5.7,30.56,SSE,150,5.0,5.0,86,0.00,,,0.00,Wunderground v.1.15,2013-01-22 06:00:00,
2013-01-21 23:06:00,8.8,5.5,30.56,SE,143,3.0,9.0,86,0.00,,,0.00,Wunderground v.1.15,2013-01-22 06:06:00,
2013-01-21 23:12:00,8.7,5.6,30.56,SSE,156,4.0,9.0,87,0.00,,,0.00,Wunderground v.1.15,2013-01-22 06:12:00,
2013-01-21 23:18:00,8.6,5.5,30.56,SE,143,5.0,9.0,87,0.00,,,0.00,Wunderground v.1.15,2013-01-22 06:18:00,
2013-01-21 23:24:00,8.6,5.5,30.57,SE,138,5.0,9.0,87,0.00,,,0.00,Wunderground v.1.15,2013-01-22 06:24:00,
2013-01-21 23:30:00,8.4,5.3,30.56,SSE,149,4.0,9.0,87,0.00,,,0.00,Wunderground v.1.15,2013-01-22 06:30:00,
2013-01-21 23:36:00,8.2,4.9,30.56,SE,143,4.0,9.0,86,0.00,,,0.00,Wunderground v.1.15,2013-01-22 06:36:00,
2013-01-21 23:42:00,8.0,4.7,30.56,SE,146,4.0,9.0,86,0.00,,,0.00,Wunderground v.1.15,2013-01-22 06:42:00,
2013-01-21 23:48:00,7.9,4.8,30.56,SE,142,4.0,9.0,87,0.00,,,0.00,Wunderground v.1.15,2013-01-22 06:48:00,
2013-01-21 23:54:00,8.0,4.9,30.56,SE,142,4.0,9.0,87,0.00,,,0.00,Wunderground v.1.15,2013-01-22 06:54:00,